Vorticity
nan nan nan nan nan nan nan nan nan nan nan nan nan nan nan nan nan nan nan nan nan nan nan nan nan nan nan nan nan nan nan nan nan nan nan nan nan nan nan nan nan nan nan nan nan
nan 6 5 6 5 6 6 6 7 7 7 8 7 7 10 14 13 6 5 1 1 6 6 9 6 9 9 7 7 8 5 9 8 3 5 4 4 6 7 6 7 8 5 10 nan
nan 7 6 6 5 5 6 6 7 7 7 8 8 7 8 9 10 14 14 11 3 5 7 7 8 9 7 7 8 7 4 7 7 7 8 7 7 6 4 7 8 2 4 9 nan
nan 11 6 5 7 6 5 6 7 6 7 7 9 9 8 11 5 5 11 21 19 9 2 6 8 9 8 7 7 6 9 5 4 5 8 6 2 8 8 5 3 4 7 4 nan
nan 13 11 7 6 7 7 7 6 6 6 6 8 10 9 9 8 1 3 13 23 13 3 4 6 6 6 6 9 9 7 5 4 6 8 7 5 9 6 6 3 6 7 6 nan
nan 12 15 10 7 7 7 6 6 6 6 6 8 9 8 4 10 8 8 8 14 13 8 5 7 5 7 8 7 6 8 7 7 8 7 9 7 6 7 6 6 8 7 9 nan
nan 22 14 13 9 6 7 7 6 7 7 7 8 8 7 7 5 6 11 9 8 9 9 7 8 8 7 7 7 5 7 13 12 8 6 11 10 8 8 7 5 4 7 8 nan
nan 21 23 15 9 7 8 7 7 7 7 7 7 9 6 9 7 7 6 7 10 7 9 11 8 5 4 7 9 10 6 6 9 11 13 8 5 12 21 15 8 6 7 7 nan
nan 12 22 20 12 8 8 8 10 10 5 6 7 7 7 9 11 12 7 8 8 9 7 8 9 8 9 7 8 10 5 5 5 10 16 1 4 4 5 11 10 11 9 9 nan
nan 9 22 27 15 9 8 7 7 6 5 7 7 7 12 9 10 11 9 10 8 9 8 10 6 6 7 7 8 9 7 5 7 2 5 6 2 1 3 7 10 8 7 9 nan
nan 12 14 22 20 12 2 2 7 6 10 4 3 3 7 11 9 9 11 7 8 9 9 8 7 9 7 2 4 7 6 3 4 2 5 9 4 7 7 5 6 6 7 10 nan
nan 12 9 16 26 18 -4 4 10 9 12 8 5 5 6 9 8 10 11 7 8 7 4 8 12 8 9 9 6 2 5 9 7 11 3 6 3 9 8 5 5 6 6 6 nan
nan 7 10 13 25 23 2 3 8 7 9 14 13 8 10 8 6 10 6 6 9 9 8 2 8 12 8 6 10 6 10 8 6 9 9 12 17 20 16 12 11 8 8 6 nan
nan 5 11 12 25 15 9 7 5 5 8 14 12 12 11 6 12 15 6 3 10 8 7 8 9 9 5 6 10 9 15 7 8 8 11 8 18 17 13 19 20 14 13 12 nan
nan -0 10 18 23 16 11 8 2 6 7 15 8 12 15 5 6 11 11 9 11 6 3 8 14 14 10 5 3 14 11 12 11 5 7 3 9 8 11 10 12 12 12 13 nan
nan -0 15 22 17 20 11 1 2 8 15 9 7 12 7 6 6 9 9 4 12 14 5 7 2 10 14 17 6 4 8 9 12 12 12 15 4 -2 12 9 10 9 8 10 nan
nan 23 23 9 16 20 -1 -1 8 6 13 13 9 11 8 9 6 8 10 8 4 11 11 14 8 4 10 11 12 4 6 10 11 9 12 15 8 6 3 7 6 9 12 11 nan
nan 32 15 6 17 10 -5 4 9 9 8 10 13 11 8 6 10 9 5 10 6 3 9 8 17 16 10 6 11 14 1 1 7 9 12 9 7 17 10 8 6 8 6 9 nan
nan 14 11 13 20 2 3 5 10 9 12 10 6 4 11 8 10 11 7 10 17 9 3 6 6 14 14 12 5 11 12 5 6 10 9 6 6 11 13 13 16 14 11 9 nan
nan 10 12 19 15 3 4 7 8 11 10 8 8 10 11 12 10 8 7 9 15 12 5 5 13 12 12 8 8 6 10 15 10 8 9 8 12 8 7 11 18 18 12 13 nan
nan 13 15 16 6 9 5 8 10 9 8 10 10 11 10 12 8 5 5 11 15 17 9 3 8 9 10 14 10 3 5 3 8 12 7 11 9 17 11 2 4 20 24 19 nan
nan 11 17 11 3 9 11 9 9 8 7 9 10 11 13 10 8 6 9 9 14 13 10 5 6 12 7 14 14 4 6 5 -0 8 7 10 10 7 1 0 3 17 26 23 nan
nan 14 18 2 2 12 8 7 11 11 10 9 9 10 12 7 8 10 8 12 13 8 9 7 3 6 10 9 18 16 11 7 -0 6 6 -2 11 1 -7 -1 8 15 16 15 nan
nan 10 12 6 11 16 9 5 7 10 10 7 9 9 9 9 7 7 8 15 14 4 10 5 5 8 1 -1 6 14 16 15 6 -0 12 -1 -3 1 2 7 8 15 17 10 nan
nan 11 9 13 14 8 10 10 5 7 10 10 7 7 5 8 10 10 7 12 13 14 11 6 7 11 4 7 4 9 15 13 7 3 -0 7 4 10 11 10 5 10 18 10 nan
nan 8 13 16 12 5 9 13 7 8 9 7 10 11 5 5 6 5 11 10 7 14 10 4 8 11 14 22 23 21 10 10 10 5 2 3 5 13 1 0 5 16 17 9 nan
nan nan nan nan nan nan nan nan nan nan nan nan nan nan nan nan nan nan nan nan nan nan nan nan nan nan nan nan nan nan nan nan nan nan nan nan nan nan nan nan nan nan nan nan nan
CAPE
27 9 1 0 2 8 2 2 4 9 8 20 5 5 26 73 65 35 1 0 0 0 0 0 0 0 0 0 0 0 0 0 0 0 0 0 0 0 0 0 0 0 0 0 0
63 15 13 6 0 6 8 4 3 8 8 2 0 8 16 32 56 33 2 14 3 6 0 0 0 0 0 0 0 0 0 0 0 0 0 0 0 0 0 0 0 0 0 0 0
92 42 27 18 2 3 9 6 3 2 1 6 3 0 7 2 0 0 2 34 58 54 0 0 0 0 0 0 0 0 0 0 0 0 0 0 0 0 0 0 0 0 0 0 0
75 84 51 26 13 5 7 5 4 0 0 6 15 6 0 0 0 0 0 0 29 26 0 0 0 0 0 0 0 0 0 0 0 0 0 0 0 0 0 0 0 0 0 0 0
92 115 100 55 23 4 14 5 6 2 0 0 18 26 1 0 0 0 0 0 0 18 15 0 0 0 0 0 0 0 0 0 0 0 0 0 0 0 0 0 0 0 0 0 0
87 132 126 99 63 30 30 9 9 5 1 0 2 17 1 0 0 0 0 0 0 8 14 1 2 0 0 0 0 0 0 0 0 0 0 0 0 0 0 0 0 0 0 0 0
39 118 130 107 78 37 28 30 19 0 1 4 19 9 0 0 0 0 0 0 0 0 29 3 0 9 5 2 0 0 0 0 0 0 0 0 0 0 0 0 0 0 0 0 0
26 69 113 129 119 78 33 51 39 34 2 6 26 3 0 0 0 0 0 0 0 0 0 0 22 40 36 0 0 3 2 2 0 0 0 0 0 0 0 0 0 0 0 0 0
19 30 92 134 121 114 95 81 73 68 41 32 0 0 0 0 0 0 0 0 0 0 0 0 3 0 1 4 4 3 0 0 0 0 0 0 0 0 0 0 0 0 0 0 0
19 16 17 92 133 106 117 76 64 25 8 10 15 0 0 0 0 0 0 0 0 0 0 0 2 2 0 4 0 0 0 0 0 0 0 0 0 0 0 0 0 0 0 0 0
36 24 26 78 121 123 89 14 6 29 10 0 0 0 0 0 0 0 0 0 0 0 0 0 2 5 3 0 0 0 0 4 4 1 0 0 0 0 0 0 0 0 0 0 0
58 39 31 11 114 136 0 0 0 0 0 0 0 0 0 0 0 0 0 0 0 0 0 0 1 0 0 0 0 0 0 1 0 0 0 0 0 0 0 0 0 0 0 0 0
74 61 49 2 78 25 0 0 0 0 0 0 0 0 0 0 1 0 0 0 0 0 0 0 0 0 0 0 0 0 0 0 0 0 0 0 0 0 0 0 0 0 0 0 0
77 29 19 17 49 2 6 0 0 0 0 0 1 0 0 16 6 3 1 0 0 0 0 0 0 0 0 0 0 0 0 0 0 1 0 0 0 0 0 0 0 0 0 0 0
101 36 3 22 48 1 0 0 0 0 0 0 14 0 22 0 0 0 0 11 12 0 0 1 0 0 1 0 0 1 0 0 0 0 1 0 8 0 0 0 0 0 0 0 0
54 6 11 29 13 0 0 0 0 0 0 3 6 19 26 18 9 2 6 24 0 15 7 0 0 0 0 0 0 1 0 1 3 10 7 0 0 0 0 0 0 0 0 0 0
54 62 53 52 34 0 0 0 0 0 0 1 4 6 4 5 8 16 16 18 22 10 1 11 3 3 0 0 0 4 23 7 4 7 0 0 0 0 0 0 0 0 0 0 0
118 70 31 17 76 0 1 0 0 0 0 0 0 1 0 1 2 9 17 13 22 7 7 0 0 0 0 0 0 0 2 2 0 0 0 0 0 0 0 0 0 0 0 0 0
114 43 35 14 64 5 0 0 0 0 0 0 5 1 2 0 3 12 19 3 0 8 13 14 0 0 2 0 1 19 12 0 7 5 14 0 0 0 0 0 0 0 0 0 0
48 33 4 53 49 20 0 0 0 0 0 0 0 0 0 1 1 10 2 0 1 3 0 0 8 0 0 1 1 15 1 9 1 0 2 0 0 0 0 0 0 0 0 0 0
6 4 75 63 57 28 3 0 0 0 0 0 0 0 0 0 0 0 0 0 0 0 0 2 14 0 5 13 0 19 42 40 6 3 0 0 0 0 0 0 0 0 0 0 0
11 1 76 38 9 12 4 0 0 0 0 0 0 0 0 0 0 0 0 0 0 0 0 0 18 4 0 0 0 0 0 3 1 0 0 0 0 0 0 0 0 0 0 0 0
26 15 72 8 0 3 2 0 0 0 0 0 0 0 1 3 2 0 0 0 0 0 0 0 24 3 0 0 8 4 2 1 5 4 0 0 0 0 0 0 0 0 0 0 0
0 0 24 32 15 0 0 9 0 0 0 0 2 6 2 17 2 0 0 0 0 0 0 0 13 0 0 0 0 7 9 5 1 14 0 0 0 0 0 0 0 0 0 0 0
1 5 2 1 8 0 0 0 0 2 0 1 10 10 9 28 8 1 0 0 0 0 0 1 2 1 2 3 1 6 2 13 4 0 0 0 0 0 0 0 0 0 0 0 1
1 15 14 6 3 0 0 0 0 4 3 4 13 2 10 18 0 0 0 0 0 0 10 15 0 3 1 1 4 13 30 8 2 0 0 0 0 0 6 1 0 0 0 3 0
2 0 0 16 5 4 3 1 2 5 1 2 0 5 9 6 0 0 0 0 0 1 8 8 7 11 0 3 2 8 5 6 3 3 0 4 0 0 0 12 2 0 0 0 0